KOREASAT 5A

Last updated on Sept. 20, 2020, 5:45 a.m. UTC

1 42984U 17067A   20263.76803459 -.00000374  00000-0  00000-0 0  9998
2 42984   0.0135 162.4974 0001920   4.5959 221.6730  1.00272848 10515
UTC
Height (km)
Latitude
Longitude
Inclination
Orbital Period
UTC large
Height (km)
Speed (km/s)
/
Latitude / Longitude
Inclination (degrees)
Orbital Period (minutes)
Azimuth
Elevation
Range (km)
Doppler Factor
iOS Compass Heading
iOS Angle

Next 30 passes for location: Hong Kong

Rise time Rise Azimuth (degrees) Set time Set Azimuth (degrees) Duration Max altitude (degrees)

No matching passes for this satellites